Time,TemperatureF,DewpointF,PressureIn,WindDirection,WindDirectionDegrees,WindSpeedMPH,WindSpeedGustMPH,Humidity,HourlyPrecipIn,Conditions,Clouds,dailyrainin,SoftwareType,DateUTC
2013-01-01 00:03:00,31.0,29.0,30.09,WSW,246,1.0,4.0,91,0.00,,,0.00,,2013-01-01 05:03:00,
2013-01-01 00:12:00,31.0,29.0,30.09,WSW,246,1.0,4.0,91,0.00,,,0.00,,2013-01-01 05:12:00,
2013-01-01 00:22:00,32.0,30.0,30.09,WNW,286,1.0,5.0,91,0.00,,,0.00,,2013-01-01 05:22:00,
2013-01-01 00:33:00,32.0,30.0,30.09,WNW,286,1.0,5.0,91,0.00,,,0.00,,2013-01-01 05:33:00,
2013-01-01 00:42:00,32.0,30.0,30.09,WNW,286,1.0,5.0,91,0.00,,,0.00,,2013-01-01 05:42:00,
2013-01-01 00:52:00,32.0,29.0,30.09,WNW,301,1.0,6.0,88,0.00,,,0.00,,2013-01-01 05:52:00,
2013-01-01 01:02:00,32.0,29.0,30.09,WNW,284,1.0,5.0,87,0.00,,,0.00,,2013-01-01 06:02:00,
2013-01-01 01:12:00,32.0,29.0,30.09,WNW,284,1.0,5.0,87,0.00,,,0.00,,2013-01-01 06:12:00,
2013-01-01 01:22:00,31.0,27.0,30.08,NW,323,0.0,7.0,86,0.00,,,0.00,,2013-01-01 06:22:00,
2013-01-01 01:32:00,31.0,27.0,30.09,WNW,302,0.0,5.0,85,0.00,,,0.00,,2013-01-01 06:32:00,
2013-01-01 01:42:00,31.0,27.0,30.09,WNW,302,0.0,5.0,85,0.00,,,0.00,,2013-01-01 06:42:00,
2013-01-01 01:52:00,31.0,27.0,30.08,NW,309,0.0,7.0,84,0.00,,,0.00,,2013-01-01 06:52:00,
2013-01-01 02:02:00,31.0,26.0,30.08,West,281,2.0,6.0,83,0.00,,,0.00,,2013-01-01 07:02:00,
2013-01-01 02:12:00,30.0,25.0,30.08,NNW,328,1.0,4.0,83,0.00,,,0.00,,2013-01-01 07:12:00,
2013-01-01 02:22:00,30.0,25.0,30.08,NNW,328,1.0,4.0,83,0.00,,,0.00,,2013-01-01 07:22:00,
2013-01-01 02:32:00,30.0,25.0,30.08,NW,317,0.0,3.0,83,0.00,,,0.00,,2013-01-01 07:32:00,
2013-01-01 02:42:00,30.0,25.0,30.08,NW,317,0.0,3.0,83,0.00,,,0.00,,2013-01-01 07:42:00,
2013-01-01 02:52:00,30.0,25.0,30.09,West,273,2.0,8.0,82,0.00,,,0.00,,2013-01-01 07:52:00,
2013-01-01 03:02:00,30.0,25.0,30.09,NW,311,1.0,6.0,82,0.00,,,0.00,,2013-01-01 08:02:00,
2013-01-01 03:12:00,30.0,25.0,30.09,NW,311,1.0,6.0,82,0.00,,,0.00,,2013-01-01 08:12:00,
2013-01-01 03:22:00,29.0,24.0,30.09,North,360,1.0,5.0,82,0.00,,,0.00,,2013-01-01 08:22:00,
2013-01-01 03:32:00,29.0,25.0,30.09,WNW,300,0.0,3.0,83,0.00,,,0.00,,2013-01-01 08:32:00,
2013-01-01 03:42:00,29.0,25.0,30.09,WNW,300,0.0,3.0,83,0.00,,,0.00,,2013-01-01 08:42:00,
2013-01-01 03:53:00,30.0,25.0,30.09,WNW,288,0.0,5.0,81,0.00,,,0.00,,2013-01-01 08:53:00,
2013-01-01 04:02:00,29.0,24.0,30.10,NW,311,3.0,6.0,81,0.00,,,0.00,,2013-01-01 09:02:00,
2013-01-01 04:12:00,29.0,24.0,30.10,NW,311,3.0,6.0,81,0.00,,,0.00,,2013-01-01 09:12:00,
2013-01-01 04:22:00,29.0,24.0,30.10,WNW,287,1.0,5.0,81,0.00,,,0.00,,2013-01-01 09:22:00,
2013-01-01 04:32:00,29.0,24.0,30.10,NW,323,1.0,6.0,80,0.00,,,0.00,,2013-01-01 09:32:00,
2013-01-01 04:42:00,29.0,24.0,30.10,NW,323,1.0,6.0,80,0.00,,,0.00,,2013-01-01 09:42:00,
2013-01-01 04:52:00,29.0,24.0,30.11,NW,305,1.0,4.0,80,0.00,,,0.00,,2013-01-01 09:52:00,
2013-01-01 05:02:00,29.0,24.0,30.11,West,281,3.0,5.0,80,0.00,,,0.00,,2013-01-01 10:02:00,
2013-01-01 05:12:00,29.0,24.0,30.11,West,281,3.0,5.0,80,0.00,,,0.00,,2013-01-01 10:12:00,
2013-01-01 05:22:00,28.0,22.0,30.10,WNW,297,2.0,5.0,78,0.00,,,0.00,,2013-01-01 10:22:00,
2013-01-01 05:33:00,28.0,23.0,30.11,NW,306,0.0,7.0,80,0.00,,,0.00,,2013-01-01 10:33:00,
2013-01-01 05:42:00,28.0,23.0,30.11,NW,306,0.0,7.0,80,0.00,,,0.00,,2013-01-01 10:42:00,
2013-01-01 05:52:00,28.0,23.0,30.11,West,275,0.0,3.0,80,0.00,,,0.00,,2013-01-01 10:52:00,
2013-01-01 06:02:00,28.0,22.0,30.10,West,275,0.0,1.0,79,0.00,,,0.00,,2013-01-01 11:02:00,
2013-01-01 06:12:00,28.0,22.0,30.10,West,275,0.0,1.0,79,0.00,,,0.00,,2013-01-01 11:12:00,
2013-01-01 06:23:00,29.0,23.0,30.10,West,275,0.0,1.0,79,0.00,,,0.00,,2013-01-01 11:23:00,
2013-01-01 06:33:00,29.0,23.0,30.10,West,275,0.0,2.0,78,0.00,,,0.00,,2013-01-01 11:33:00,
2013-01-01 06:43:00,29.0,23.0,30.10,West,275,0.0,2.0,78,0.00,,,0.00,,2013-01-01 11:43:00,
2013-01-01 06:53:00,29.0,23.0,30.10,West,275,0.0,2.0,77,0.00,,,0.00,,2013-01-01 11:53:00,
2013-01-01 07:03:00,29.0,22.0,30.10,NNW,345,1.0,4.0,76,0.00,,,0.00,,2013-01-01 12:03:00,
2013-01-01 07:12:00,29.0,22.0,30.10,NNW,345,1.0,4.0,76,0.00,,,0.00,,2013-01-01 12:12:00,
2013-01-01 07:22:00,28.0,22.0,30.12,WNW,284,1.0,4.0,77,0.00,,,0.00,,2013-01-01 12:22:00,
2013-01-01 07:33:00,27.0,21.0,30.14,WNW,288,0.0,2.0,78,0.00,,,0.00,,2013-01-01 12:33:00,
2013-01-01 07:43:00,27.0,21.0,30.14,WNW,288,0.0,2.0,78,0.00,,,0.00,,2013-01-01 12:43:00,
2013-01-01 07:52:00,27.0,21.0,30.14,NNW,336,0.0,4.0,78,0.00,,,0.00,,2013-01-01 12:52:00,
2013-01-01 08:03:00,27.0,21.0,30.15,WNW,284,0.0,4.0,79,0.00,,,0.00,,2013-01-01 13:03:00,
2013-01-01 08:12:00,27.0,21.0,30.15,WNW,284,0.0,4.0,79,0.00,,,0.00,,2013-01-01 13:12:00,
2013-01-01 08:22:00,27.0,20.0,30.15,WNW,303,1.0,5.0,76,0.00,,,0.00,,2013-01-01 13:22:00,
2013-01-01 08:33:00,27.0,20.0,30.16,WNW,298,1.0,4.0,75,0.00,,,0.00,,2013-01-01 13:33:00,
2013-01-01 08:43:00,27.0,20.0,30.16,WNW,298,1.0,4.0,75,0.00,,,0.00,,2013-01-01 13:43:00,
2013-01-01 08:52:00,27.0,20.0,30.16,NW,323,1.0,5.0,74,0.00,,,0.00,,2013-01-01 13:52:00,
2013-01-01 09:02:00,27.0,20.0,30.16,NW,323,1.0,5.0,74,0.00,,,0.00,,2013-01-01 14:02:00,
2013-01-01 09:12:00,27.0,20.0,30.16,NW,323,1.0,5.0,74,0.00,,,0.00,,2013-01-01 14:12:00,
2013-01-01 09:22:00,27.0,20.0,30.19,NNW,342,1.0,3.0,73,0.00,,,0.00,,2013-01-01 14:22:00,
2013-01-01 09:32:00,27.0,20.0,30.18,North,360,1.0,4.0,73,0.00,,,0.00,,2013-01-01 14:32:00,
2013-01-01 09:42:00,27.0,20.0,30.18,North,360,1.0,4.0,73,0.00,,,0.00,,2013-01-01 14:42:00,
2013-01-01 09:53:00,27.0,20.0,30.17,North,355,2.0,7.0,73,0.00,,,0.00,,2013-01-01 14:53:00,
2013-01-01 10:03:00,27.0,20.0,30.17,North,360,4.0,6.0,73,0.00,,,0.00,,2013-01-01 15:03:00,
2013-01-01 10:12:00,27.0,20.0,30.17,North,360,4.0,6.0,73,0.00,,,0.00,,2013-01-01 15:12:00,
2013-01-01 10:22:00,27.0,19.0,30.17,North,5,6.0,10.0,71,0.00,,,0.00,,2013-01-01 15:22:00,
2013-01-01 10:33:00,28.0,20.0,30.18,NNE,15,4.0,8.0,70,0.00,,,0.00,,2013-01-01 15:33:00,
2013-01-01 10:42:00,28.0,20.0,30.18,NNE,15,4.0,8.0,70,0.00,,,0.00,,2013-01-01 15:42:00,
2013-01-01 10:53:00,28.0,19.0,30.18,North,5,4.0,6.0,69,0.00,,,0.00,,2013-01-01 15:53:00,
2013-01-01 11:02:00,28.0,18.0,30.15,NNE,18,4.0,10.0,67,0.00,,,0.00,,2013-01-01 16:02:00,
2013-01-01 11:12:00,28.0,18.0,30.15,NNE,18,4.0,10.0,67,0.00,,,0.00,,2013-01-01 16:12:00,
2013-01-01 11:22:00,27.0,18.0,30.16,NNE,13,5.0,10.0,68,0.00,,,0.00,,2013-01-01 16:22:00,
2013-01-01 11:33:00,28.0,19.0,30.17,North,5,5.0,9.0,68,0.00,,,0.00,,2013-01-01 16:33:00,
2013-01-01 11:43:00,28.0,19.0,30.17,North,5,5.0,9.0,68,0.00,,,0.00,,2013-01-01 16:43:00,
2013-01-01 11:53:00,29.0,20.0,30.18,NNE,24,4.0,8.0,69,0.00,,,0.00,,2013-01-01 16:53:00,
2013-01-01 12:02:00,29.0,19.0,30.18,North,360,3.0,6.0,65,0.00,,,0.00,,2013-01-01 17:02:00,
2013-01-01 12:12:00,29.0,19.0,30.18,North,360,3.0,6.0,65,0.00,,,0.00,,2013-01-01 17:12:00,
2013-01-01 12:22:00,29.0,18.0,30.17,NNE,30,2.0,5.0,64,0.00,,,0.00,,2013-01-01 17:22:00,
2013-01-01 12:33:00,28.0,18.0,30.16,NNE,30,1.0,5.0,65,0.00,,,0.00,,2013-01-01 17:33:00,
2013-01-01 12:43:00,28.0,18.0,30.16,NNE,30,1.0,5.0,65,0.00,,,0.00,,2013-01-01 17:43:00,
2013-01-01 12:53:00,28.0,17.0,30.17,NNE,21,0.0,4.0,64,0.00,,,0.00,,2013-01-01 17:53:00,
2013-01-01 13:03:00,28.0,17.0,30.18,NW,308,2.0,6.0,64,0.00,,,0.00,,2013-01-01 18:03:00,
2013-01-01 13:13:00,28.0,17.0,30.18,NW,308,2.0,6.0,64,0.00,,,0.00,,2013-01-01 18:13:00,
2013-01-01 13:23:00,28.0,18.0,30.17,NNW,336,3.0,7.0,66,0.00,,,0.00,,2013-01-01 18:23:00,
2013-01-01 13:33:00,28.0,17.0,30.16,WSW,256,4.0,6.0,64,0.00,,,0.00,,2013-01-01 18:33:00,
2013-01-01 13:43:00,28.0,17.0,30.16,WSW,256,4.0,6.0,64,0.00,,,0.00,,2013-01-01 18:43:00,
2013-01-01 13:53:00,28.0,17.0,30.16,WSW,256,4.0,6.0,64,0.00,,,0.00,,2013-01-01 18:53:00,
2013-01-01 14:02:00,29.0,19.0,30.13,North,360,2.0,6.0,66,0.00,,,0.00,,2013-01-01 19:02:00,
2013-01-01 14:12:00,29.0,19.0,30.13,North,360,2.0,6.0,66,0.00,,,0.00,,2013-01-01 19:12:00,
2013-01-01 14:22:00,29.0,19.0,30.13,West,273,3.0,6.0,65,0.00,,,0.00,,2013-01-01 19:22:00,
2013-01-01 14:33:00,29.0,19.0,30.13,WSW,257,3.0,8.0,66,0.00,,,0.00,,2013-01-01 19:33:00,
2013-01-01 14:42:00,29.0,19.0,30.13,WSW,257,3.0,8.0,66,0.00,,,0.00,,2013-01-01 19:42:00,
2013-01-01 14:53:00,29.0,19.0,30.14,NW,306,3.0,11.0,65,0.00,,,0.00,,2013-01-01 19:53:00,
2013-01-01 15:02:00,30.0,19.0,30.13,WNW,298,4.0,9.0,64,0.00,,,0.00,,2013-01-01 20:02:00,
2013-01-01 15:13:00,30.0,19.0,30.13,WNW,298,4.0,9.0,64,0.00,,,0.00,,2013-01-01 20:13:00,
2013-01-01 15:23:00,29.0,18.0,30.14,West,263,3.0,8.0,64,0.00,,,0.00,,2013-01-01 20:23:00,
2013-01-01 15:32:00,29.0,18.0,30.14,West,263,3.0,8.0,64,0.00,,,0.00,,2013-01-01 20:32:00,
2013-01-01 15:42:00,29.0,18.0,30.14,West,263,3.0,8.0,64,0.00,,,0.00,,2013-01-01 20:42:00,
2013-01-01 15:53:00,29.0,18.0,30.13,West,280,2.0,6.0,63,0.00,,,0.00,,2013-01-01 20:53:00,
2013-01-01 16:03:00,29.0,18.0,30.14,West,273,3.0,9.0,63,0.00,,,0.00,,2013-01-01 21:03:00,
2013-01-01 16:13:00,29.0,18.0,30.14,West,273,3.0,9.0,63,0.00,,,0.00,,2013-01-01 21:13:00,
2013-01-01 16:22:00,28.0,18.0,30.14,West,259,3.0,7.0,66,0.00,,,0.00,,2013-01-01 21:22:00,
2013-01-01 16:33:00,27.0,18.0,30.14,West,267,3.0,8.0,68,0.00,,,0.00,,2013-01-01 21:33:00,
2013-01-01 16:42:00,27.0,18.0,30.14,West,267,3.0,8.0,68,0.00,,,0.00,,2013-01-01 21:42:00,
2013-01-01 16:53:00,27.0,18.0,30.14,WNW,287,2.0,8.0,68,0.00,,,0.00,,2013-01-01 21:53:00,
2013-01-01 17:03:00,27.0,18.0,30.14,WNW,290,2.0,6.0,67,0.00,,,0.00,,2013-01-01 22:03:00,
2013-01-01 17:12:00,27.0,18.0,30.14,WNW,290,2.0,6.0,67,0.00,,,0.00,,2013-01-01 22:12:00,
2013-01-01 17:22:00,27.0,18.0,30.15,WNW,296,1.0,5.0,68,0.00,,,0.00,,2013-01-01 22:22:00,
2013-01-01 17:33:00,26.0,17.0,30.15,WNW,288,1.0,5.0,67,0.00,,,0.00,,2013-01-01 22:33:00,
2013-01-01 17:42:00,26.0,17.0,30.15,WNW,288,1.0,5.0,67,0.00,,,0.00,,2013-01-01 22:42:00,
2013-01-01 17:53:00,26.0,17.0,30.14,WNW,290,1.0,4.0,69,0.00,,,0.00,,2013-01-01 22:53:00,
2013-01-01 18:03:00,26.0,17.0,30.14,WNW,291,1.0,3.0,68,0.00,,,0.00,,2013-01-01 23:03:00,
2013-01-01 18:12:00,26.0,17.0,30.14,WNW,291,1.0,3.0,68,0.00,,,0.00,,2013-01-01 23:12:00,
2013-01-01 18:22:00,26.0,17.0,30.14,WNW,291,0.0,3.0,68,0.00,,,0.00,,2013-01-01 23:22:00,
2013-01-01 18:32:00,26.0,17.0,30.14,WNW,291,0.0,0.0,69,0.00,,,0.00,,2013-01-01 23:32:00,
2013-01-01 18:42:00,26.0,17.0,30.14,WNW,291,0.0,0.0,69,0.00,,,0.00,,2013-01-01 23:42:00,
2013-01-01 18:53:00,25.0,18.0,30.14,WNW,291,0.0,0.0,73,0.00,,,0.00,,2013-01-01 23:53:00,
2013-01-01 19:03:00,25.0,17.0,30.15,WNW,291,0.0,0.0,72,0.00,,,0.00,,2013-01-02 00:03:00,
2013-01-01 19:12:00,25.0,17.0,30.15,WNW,291,0.0,0.0,72,0.00,,,0.00,,2013-01-02 00:12:00,
2013-01-01 19:22:00,25.0,18.0,30.15,WNW,291,0.0,1.0,74,0.00,,,0.00,,2013-01-02 00:22:00,
2013-01-01 19:32:00,25.0,18.0,30.15,WNW,291,0.0,0.0,75,0.00,,,0.00,,2013-01-02 00:32:00,
2013-01-01 19:42:00,25.0,18.0,30.15,WNW,291,0.0,0.0,75,0.00,,,0.00,,2013-01-02 00:42:00,
2013-01-01 19:53:00,25.0,18.0,30.15,WNW,291,0.0,0.0,74,0.00,,,0.00,,2013-01-02 00:53:00,
2013-01-01 20:02:00,26.0,18.0,30.15,WNW,291,0.0,0.0,72,0.00,,,0.00,,2013-01-02 01:02:00,
2013-01-01 20:12:00,26.0,18.0,30.15,WNW,291,0.0,0.0,72,0.00,,,0.00,,2013-01-02 01:12:00,
2013-01-01 20:22:00,26.0,19.0,30.16,WNW,291,0.0,0.0,73,0.00,,,0.00,,2013-01-02 01:22:00,
2013-01-01 20:32:00,25.0,17.0,30.16,WNW,291,0.0,0.0,72,0.00,,,0.00,,2013-01-02 01:32:00,
2013-01-01 20:42:00,25.0,17.0,30.16,WNW,291,0.0,0.0,72,0.00,,,0.00,,2013-01-02 01:42:00,
2013-01-01 20:52:00,25.0,18.0,30.16,WNW,291,0.0,0.0,74,0.00,,,0.00,,2013-01-02 01:52:00,
2013-01-01 21:02:00,25.0,18.0,30.16,WNW,291,0.0,1.0,75,0.00,,,0.00,,2013-01-02 02:02:00,
2013-01-01 21:12:00,25.0,18.0,30.16,WNW,291,0.0,1.0,75,0.00,,,0.00,,2013-01-02 02:12:00,
2013-01-01 21:22:00,25.0,19.0,30.16,WSW,254,2.0,5.0,76,0.00,,,0.00,,2013-01-02 02:22:00,
2013-01-01 21:32:00,25.0,19.0,30.16,West,268,0.0,3.0,76,0.00,,,0.00,,2013-01-02 02:32:00,
2013-01-01 21:42:00,25.0,19.0,30.16,West,268,0.0,3.0,76,0.00,,,0.00,,2013-01-02 02:42:00,
2013-01-01 21:53:00,25.0,19.0,30.16,West,268,0.0,2.0,76,0.00,,,0.00,,2013-01-02 02:53:00,
2013-01-01 22:02:00,24.0,18.0,30.16,West,268,1.0,2.0,78,0.00,,,0.00,,2013-01-02 03:02:00,
2013-01-01 22:12:00,24.0,18.0,30.16,West,268,1.0,2.0,78,0.00,,,0.00,,2013-01-02 03:12:00,
2013-01-01 22:22:00,24.0,18.0,30.16,WSW,241,1.0,4.0,77,0.00,,,0.00,,2013-01-02 03:22:00,
2013-01-01 22:32:00,23.0,17.0,30.16,WSW,238,0.0,3.0,78,0.00,,,0.00,,2013-01-02 03:32:00,
2013-01-01 22:42:00,23.0,17.0,30.16,WSW,238,0.0,3.0,78,0.00,,,0.00,,2013-01-02 03:42:00,
2013-01-01 22:53:00,23.0,17.0,30.16,WSW,238,1.0,3.0,79,0.00,,,0.00,,2013-01-02 03:53:00,
2013-01-01 23:03:00,22.0,17.0,30.16,WSW,238,0.0,2.0,80,0.00,,,0.00,,2013-01-02 04:03:00,
2013-01-01 23:12:00,22.0,17.0,30.16,WSW,238,0.0,2.0,80,0.00,,,0.00,,2013-01-02 04:12:00,
2013-01-01 23:22:00,21.0,16.0,30.16,WSW,239,0.0,3.0,82,0.00,,,0.00,,2013-01-02 04:22:00,
2013-01-01 23:32:00,20.0,15.0,30.16,WSW,238,0.0,2.0,82,0.00,,,0.00,,2013-01-02 04:32:00,
2013-01-01 23:42:00,20.0,15.0,30.16,WSW,238,0.0,2.0,82,0.00,,,0.00,,2013-01-02 04:42:00,
2013-01-01 23:53:00,20.0,16.0,30.17,WSW,238,1.0,2.0,83,0.00,,,0.00,,2013-01-02 04:53:00,